Terminal Aerodrome Forecast
Issued by NWS Detroit/Pontiac, MI

Home | Current Version | Previous Version | Text Only | Print | Product List | Glossary On
Versions: 1 2 3 4 5 6 7 8 9 10 11 12 13 14 15 16 17 18 19 20 21 22 23 24 25 26
000
FTUS43 KDTX 240257 AAA
TAFDTW
TAF AMD
KDTW 240257Z 2403/2506 18005KT P6SM SCT250
     FM241600 20010KT P6SM -SHRA SCT050 OVC100
     FM242000 22013G20KT 6SM -SHRA BKN040 OVC080 PROB30 2420/2424
      3SM TSRA OVC030CB
     FM250100 20010KT P6SM SCT040 BKN100 BKN250=

USA.gov is the U.S. government's official web portal to all federal, state and local government web resources and services.